RH
94 98 95 93 88 95 96 87 93 85 97 84 84 73 70 65 65 65 75 83 79 83 90 80 84 92 94
95 88 100 100 97 100 85 80 75 83 88 80 72 66 56 60 57 56 63 73 74 80 71 73 79 92 86
100 97 88 100 100 100 100 100 100 81 74 59 54 50 52 68 59 54 66 65 60 61 54 56 61 56 55
95 96 93 98 100 100 100 100 100 100 100 98 92 90 81 55 61 60 53 47 45 47 48 52 46 43 42
48 71 98 99 100 100 100 100 100 100 100 100 100 100 100 100 93 75 62 50 50 54 55 59 62 56 58
38 40 44 61 100 96 100 100 100 100 100 100 100 100 100 92 82 98 100 100 100 100 100 83 75 77 79
39 41 43 46 46 65 85 86 96 100 100 100 100 100 100 100 100 100 100 100 100 100 100 87 85 95 91
39 40 42 42 42 44 44 43 48 59 69 94 100 100 100 100 100 100 100 100 100 100 100 100 100 100 100
52 48 50 53 51 47 46 46 46 43 44 44 47 57 69 81 94 98 94 85 84 85 85 78 75 78 74
51 51 52 59 50 49 52 47 45 47 47 45 50 51 48 44 42 39 37 37 34 33 34 34 33 36 37
56 55 51 54 56 52 50 50 52 48 51 53 56 51 50 51 51 52 49 46 44 39 39 39 37 35 33
69 59 50 66 61 50 49 54 47 46 48 51 57 56 56 52 50 51 48 44 42 40 37 35 34 33 32
59 59 55 53 52 51 52 47 42 45 46 50 52 51 55 51 47 41 37 36 36 34 32 30 30 31 30
58 56 53 52 48 43 42 44 44 46 47 50 50 46 47 45 42 40 35 31 30 30 28 25 24 25 25
51 49 53 44 41 42 53 46 40 51 55 48 47 47 44 41 37 34 32 29 27 25 23 23 24 25 26
65 51 41 42 43 48 57 59 53 47 42 44 41 39 34 31 27 26 24 23 23 24 26 26 26 27 27
59 42 41 38 40 50 53 49 50 57 62 46 36 33 31 28 26 27 27 24 24 26 24 25 25 26 26
Wind_Speed
93 92 90 89 90 89 87 85 85 86 89 86 87 87 84 84 83 82 82 82 82 81 81 79 79 79 79
93 92 89 90 90 88 91 91 89 88 87 87 87 88 86 86 79 79 80 77 77 78 78 78 75 74 77
96 93 91 86 85 83 81 83 85 89 89 89 88 86 81 78 80 80 79 82 80 81 81 82 83 84 84
101 100 93 91 86 85 81 87 85 86 84 86 87 85 87 89 90 90 90 89 88 87 86 86 85 87 86
102 101 100 99 94 90 90 95 96 92 88 88 90 92 93 89 94 96 96 95 94 94 97 96 96 95 95
106 103 100 99 102 100 99 96 95 97 97 99 100 101 102 102 104 99 99 98 101 100 99 100 102 102 104
101 101 102 103 103 104 105 105 105 104 105 105 103 99 100 100 100 102 104 107 108 108 110 110 109 108 109
104 103 102 103 103 102 103 106 107 110 112 111 111 112 113 113 113 116 117 116 116 116 115 115 114 114 115
110 108 106 105 104 102 104 104 105 108 110 110 115 117 118 120 121 122 124 124 124 122 123 124 125 124 119
113 112 110 111 112 109 108 108 108 109 109 110 109 111 113 117 120 122 122 121 119 118 118 117 115 113 113
118 117 115 113 111 112 113 111 109 108 109 109 110 112 111 111 112 115 115 115 115 115 114 115 113 112 112
120 120 117 116 112 109 106 106 107 108 108 108 108 110 111 114 114 115 116 115 116 116 116 114 113 112 112
109 109 109 108 106 105 105 105 103 104 105 106 108 109 112 113 116 114 114 114 114 114 114 113 112 112 110
109 109 110 109 106 106 106 105 103 103 106 108 108 110 111 113 112 113 112 110 110 109 107 106 105 104 104
112 109 109 108 103 100 97 100 100 98 101 105 107 109 109 111 111 108 107 106 103 101 99 97 97 97 97
109 110 105 97 93 92 90 92 91 94 98 100 101 101 101 100 100 98 97 95 93 92 89 89 88 88 89
105 101 97 87 86 86 83 84 82 84 86 89 92 93 92 91 91 89 88 86 83 82 81 82 82 82 83
Wind_Direction
248 250 252 253 253 254 255 257 257 257 259 260 262 264 265 267 269 270 271 273 276 278 279 281 281 282 283
248 249 249 253 255 255 257 258 260 259 261 263 265 267 270 270 270 269 269 272 274 274 279 279 280 281 284
247 250 249 248 251 252 256 261 262 264 266 268 268 269 266 266 270 272 271 273 273 274 277 278 278 281 282
248 250 249 249 248 249 250 250 256 261 262 265 267 267 270 271 273 271 273 274 275 277 278 278 280 281 284
249 250 249 250 248 246 243 251 253 255 256 260 262 266 268 269 272 276 276 277 278 280 283 285 286 287 286
247 250 251 251 249 249 247 248 249 253 255 257 259 260 266 268 273 276 275 278 280 282 282 283 285 286 286
248 249 250 252 252 253 253 252 252 252 253 253 256 258 259 264 265 267 271 273 274 276 278 280 282 283 285
250 250 250 252 254 255 257 256 256 256 255 256 258 257 258 260 262 265 267 270 273 275 276 278 280 281 282
251 252 254 254 254 256 257 258 259 260 259 258 259 261 262 263 264 266 267 269 271 272 274 276 277 279 281
251 252 254 255 256 258 260 259 259 261 262 263 264 263 263 265 267 268 269 270 272 273 274 275 277 278 278
252 254 256 258 259 260 260 260 261 263 263 264 264 266 267 268 270 272 272 273 274 275 276 276 277 278 279
254 255 257 257 258 258 260 260 260 262 264 264 266 267 268 269 270 269 271 274 276 277 277 279 279 280 280
250 251 252 252 254 256 258 260 261 263 265 266 266 267 269 270 271 273 274 274 275 276 277 279 280 281 281
247 248 249 251 254 256 259 262 264 265 266 267 268 268 270 270 272 272 274 276 277 277 278 279 279 279 280
247 250 251 253 255 259 261 263 264 265 266 266 267 268 269 270 271 273 274 276 277 277 278 279 279 280 280
249 250 254 258 258 260 262 266 265 266 266 266 267 270 270 271 273 274 275 276 277 277 278 279 279 279 279
249 256 257 259 259 263 266 267 265 265 265 265 266 268 270 271 273 274 275 275 275 275 276 276 278 278 278